EN

Hourly Weather Luhy

Today, 26 November, Thursday

Time Temperature Precipitation Wind Pressure Humidity
00:00 +1°C° 0 mm 0 mps 681 mmHg 49%
01:00 +2°C° 0 mm 0 mps 681 mmHg 46%
02:00 -1°C° 0 mm 0 mps 680 mmHg 49%
03:00 +2°C° 0 mm 1 mps 680 mmHg 39%
04:00 +3°C° 0 mm 1 mps 679 mmHg 37%
05:00 +3°C° 0 mm 1 mps 680 mmHg 37%
06:00 +1°C° 0 mm 0 mps 679 mmHg 38%
07:00 +3°C° 0 mm 1 mps 680 mmHg 38%
08:00 +3°C° 0 mm 1 mps 680 mmHg 39%
09:00 +3°C° 0 mm 1 mps 680 mmHg 40%
10:00 +2°C° 0 mm 0 mps 680 mmHg 43%
11:00 +3°C° 0 mm 0 mps 680 mmHg 47%
12:00 +3°C° 0 mm 0 mps 680 mmHg 58%
13:00 +4°C° 0 mm 0 mps 680 mmHg 62%
14:00 +4°C° 0 mm 0 mps 680 mmHg 65%
15:00 +4°C° 0 mm 0 mps 680 mmHg 68%
16:00 +3°C° 0 mm 0 mps 680 mmHg 71%
17:00 +3°C° 0 mm 0 mps 679 mmHg 63%
18:00 +3°C° 0 mm 0 mps 679 mmHg 62%
19:00 +3°C° 0 mm 0 mps 679 mmHg 63%
20:00 +3°C° 0 mm 0 mps 679 mmHg 60%
21:00 +3°C° 0 mm 0 mps 679 mmHg 55%
22:00 +3°C° 0 mm 0 mps 679 mmHg 53%
23:00 +2°C° 0 mm 0 mps 679 mmHg 53%

Tomorrow, 27 November, Friday

Time Temperature Precipitation Wind Pressure Humidity
00:00 +3°C° 0 mm 1 mps 679 mmHg 54%
01:00 +2°C° 0 mm 1 mps 679 mmHg 55%
02:00 +2°C° 0 mm 1 mps 678 mmHg 57%
03:00 +2°C° 0 mm 1 mps 678 mmHg 57%
04:00 +2°C° 0 mm 1 mps 678 mmHg 59%
05:00 +2°C° 0 mm 1 mps 678 mmHg 60%
06:00 +2°C° 0 mm 1 mps 677 mmHg 60%
07:00 +2°C° 0 mm 1 mps 678 mmHg 62%
08:00 +2°C° 0 mm 1 mps 678 mmHg 63%
09:00 +2°C° 0 mm 1 mps 678 mmHg 67%
10:00 +1°C° 0 mm 0 mps 678 mmHg 78%
11:00 +2°C° 0 mm 0 mps 678 mmHg 81%
12:00 +4°C° 0 mm 1 mps 678 mmHg 87%
13:00 +4°C° 0 mm 1 mps 678 mmHg 90%
14:00 +4°C° 0 mm 1 mps 678 mmHg 93%
15:00 +4°C° 0 mm 1 mps 678 mmHg 97%
16:00 +3°C° 0 mm 1 mps 677 mmHg 100%
17:00 +3°C° 0 mm 1 mps 677 mmHg 100%
18:00 +1°C° 0 mm 0 mps 677 mmHg 100%
19:00 +1°C° 0 mm 0 mps 677 mmHg 100%
20:00 +1°C° 0 mm 0 mps 677 mmHg 100%
21:00 +1°C° 0 mm 0 mps 677 mmHg 100%
22:00 0°C° 0 mm 0 mps 677 mmHg 100%
23:00 0°C° 0 mm 0 mps 676 mmHg 100%

Day after tomorrow, 28 November, Saturday

Time Temperature Precipitation Wind Pressure Humidity
00:00 -1°C° 0 mm 0 mps 676 mmHg 100%
01:00 -1°C° 0 mm 0 mps 676 mmHg 100%
02:00 -1°C° 0 mm 0 mps 675 mmHg 100%
03:00 0°C° 0 mm 1 mps 675 mmHg 100%
04:00 0°C° 0.2 mm 1 mps 675 mmHg 100%
05:00 0°C° 0.2 mm 1 mps 675 mmHg 100%
06:00 -1°C° 0.2 mm 1 mps 675 mmHg 100%
07:00 -1°C° 0.1 mm 1 mps 675 mmHg 100%
08:00 -1°C° 0 mm 1 mps 675 mmHg 100%
09:00 -1°C° 0 mm 1 mps 675 mmHg 100%
10:00 -1°C° 0 mm 1 mps 675 mmHg 100%
11:00 -1°C° 0 mm 1 mps 674 mmHg 100%
12:00 -1°C° 0 mm 1 mps 674 mmHg 100%
13:00 -1°C° 0 mm 1 mps 674 mmHg 100%
14:00 -1°C° 0 mm 1 mps 674 mmHg 100%
15:00 -1°C° 0 mm 1 mps 674 mmHg 100%
16:00 -2°C° 0 mm 1 mps 674 mmHg 100%
17:00 -2°C° 0 mm 1 mps 674 mmHg 100%
18:00 -3°C° 0 mm 1 mps 673 mmHg 100%
19:00 -3°C° 0.1 mm 1 mps 674 mmHg 100%
20:00 -2°C° 0.1 mm 1 mps 674 mmHg 100%
21:00 -2°C° 0.2 mm 1 mps 674 mmHg 100%
22:00 -4°C° 0.2 mm 2 mps 674 mmHg 100%
23:00 -4°C° 0.1 mm 2 mps 674 mmHg 100%

29 November, Sunday

Time Temperature Precipitation Wind Pressure Humidity
00:00 -5°C° 0 mm 2 mps 674 mmHg 100%
01:00 -5°C° 0.1 mm 2 mps 674 mmHg 100%
02:00 -3°C° 0.2 mm 1 mps 674 mmHg 100%
03:00 -5°C° 0.2 mm 2 mps 674 mmHg 100%
04:00 -3°C° 0 mm 1 mps 674 mmHg 100%
05:00 -4°C° 0 mm 1 mps 673 mmHg 100%
06:00 -6°C° 0 mm 2 mps 673 mmHg 100%
07:00 -6°C° 0 mm 2 mps 673 mmHg 100%
08:00 -4°C° 0 mm 1 mps 674 mmHg 100%
09:00 -4°C° 0 mm 1 mps 674 mmHg 100%
10:00 -4°C° 0 mm 1 mps 674 mmHg 100%
11:00 -3°C° 0 mm 1 mps 674 mmHg 100%
12:00 -3°C° 0 mm 1 mps 675 mmHg 100%
13:00 -5°C° 0 mm 2 mps 675 mmHg 100%
14:00 -5°C° 0 mm 2 mps 675 mmHg 100%
15:00 -5°C° 0 mm 2 mps 674 mmHg 100%
16:00 -4°C° 0 mm 1 mps 674 mmHg 100%
17:00 -4°C° 0 mm 1 mps 674 mmHg 100%
18:00 -4°C° 0 mm 1 mps 675 mmHg 100%
19:00 -4°C° 0 mm 1 mps 675 mmHg 100%
20:00 -4°C° 0 mm 1 mps 675 mmHg 100%
21:00 -4°C° 0 mm 1 mps 675 mmHg 100%
22:00 -6°C° 0 mm 1 mps 675 mmHg 100%
23:00 -6°C° 0 mm 1 mps 675 mmHg 100%

30 November, Monday

Time Temperature Precipitation Wind Pressure Humidity
00:00 -6°C° 0 mm 1 mps 675 mmHg 100%
01:00 -6°C° 0 mm 1 mps 675 mmHg 100%
02:00 -6°C° 0 mm 1 mps 675 mmHg 100%
03:00 -6°C° 0 mm 1 mps 676 mmHg 97%
04:00 -6°C° 0 mm 1 mps 675 mmHg 95%
05:00 -6°C° 0 mm 1 mps 676 mmHg 93%
06:00 -6°C° 0 mm 1 mps 676 mmHg 89%
07:00 -4°C° 0 mm 1 mps 677 mmHg 86%
08:00 -7°C° 0 mm 2 mps 677 mmHg 85%
09:00 -7°C° 0 mm 2 mps 677 mmHg 87%
10:00 -4°C° 0 mm 1 mps 677 mmHg 86%
11:00 -3°C° 0 mm 1 mps 678 mmHg 87%
12:00 -2°C° 0 mm 1 mps 678 mmHg 89%
13:00 -3°C° 0 mm 0 mps 679 mmHg 90%
14:00 -1°C° 0 mm 1 mps 679 mmHg 91%
15:00 -1°C° 0 mm 1 mps 679 mmHg 92%
16:00 -5°C° 0 mm 2 mps 679 mmHg 93%
17:00 -5°C° 0 mm 2 mps 679 mmHg 90%
18:00 -6°C° 0 mm 2 mps 679 mmHg 91%
19:00 -6°C° 0 mm 2 mps 679 mmHg 91%
20:00 -6°C° 0 mm 2 mps 679 mmHg 90%
21:00 -6°C° 0 mm 2 mps 679 mmHg 87%
22:00 -6°C° 0 mm 2 mps 679 mmHg 84%
23:00 -6°C° 0 mm 2 mps 679 mmHg 80%

1 December, Tuesday

Time Temperature Precipitation Wind Pressure Humidity
00:00 -6°C° 0 mm 2 mps 680 mmHg 74%
01:00 -5°C° 0 mm 2 mps 679 mmHg 69%
02:00 -3°C° 0 mm 1 mps 680 mmHg 67%
03:00 -3°C° 0 mm 1 mps 679 mmHg 65%
04:00 -3°C° 0 mm 1 mps 679 mmHg 63%
05:00 -3°C° 0 mm 1 mps 679 mmHg 63%
06:00 -5°C° 0 mm 2 mps 679 mmHg 63%
07:00 -5°C° 0 mm 2 mps 679 mmHg 66%
08:00 -6°C° 0 mm 2 mps 679 mmHg 68%
09:00 -5°C° 0 mm 2 mps 679 mmHg 70%
10:00 -3°C° 0 mm 1 mps 679 mmHg 71%
11:00 -2°C° 0 mm 1 mps 680 mmHg 76%
12:00 -1°C° 0 mm 1 mps 680 mmHg 77%
13:00 0°C° 0 mm 1 mps 679 mmHg 80%
14:00 0°C° 0 mm 1 mps 679 mmHg 85%
15:00 0°C° 0 mm 1 mps 679 mmHg 91%
16:00 0°C° 0 mm 1 mps 678 mmHg 93%
17:00 -1°C° 0 mm 1 mps 678 mmHg 98%
18:00 -1°C° 0 mm 1 mps 678 mmHg 97%
19:00 -1°C° 0 mm 1 mps 678 mmHg 96%
20:00 -2°C° 0 mm 1 mps 678 mmHg 98%
21:00 -2°C° 0 mm 1 mps 678 mmHg 100%
22:00 -4°C° 0 mm 2 mps 678 mmHg 100%
23:00 -5°C° 0 mm 2 mps 677 mmHg 100%
Show more